www.pogodaiklimat.ru

Погода и климат >> Архив погоды >> Канада >> Borden


ПОГОДА в Borden

  • Прогноз погоды в Borden
  • Монитор погоды в Borden
  • Климат города

АРХИВ ПОГОДЫ в Borden

Время (UTC), дата Ветер
(напр.,м/с)
 
Видим.   Явления Облачность Т
(С)
Тd
(С)
f
(%)
Тe
(С)
Тes
(С)
Комфортность P
(гПа)
Po
(гПа)
Тmin
(С)
Tmax
(С)
R
(мм)
R24
(мм)
S
(см)
00 14.05 С 3 14 км ясно +15.3 -0.1 35 +15 +15 1014.1 987.4
03 14.05 З 1 14 км ясно +6.4 +0.3 65 +6 +6 1014.5 987.8
06 14.05 ЮЗ 1 14 км ясно +4.2 +1.5 83 +3 +3 1013.7 987.0
09 14.05 штиль 0 14 км ясно +1.6 0.0 89 0 0 1013.6 986.9
12 14.05 ЮЗ 2 14 км ясно +15.3 +8.9 66 +16 +19 1013.3 986.8 +1.3
15 14.05 З 5 14 км н/о +23.1 +9.2 41 +25 +25 комфорт 1013.2 986.6 0.5
18 14.05 З 5 14 км ясно +24.5 +8.9 37 +25 +36 комфорт 1012.5 985.9
21 14.05 З 3 14 км ясно +26.0 +10.1 37 +27 +34 жарко 1008.8 982.3
00 15.05 СЗ 3 14 км ясно +20.1 +10.3 53 +22 +22 комфорт 1009.5 983.2
03 15.05 штиль 0 14 км 9/9 1000 м
[]
+15.3 +10.5 73 +15 +15 1010.1 983.8
12 15.05 З 1 6000 м дождь 10/0
[]
+14.3 +14.0 98 +15 +16 1009.4 983.1
15 15.05 С 3 12 км слаб. дождь {осадки} 10/10 50 м
[]
+14.3 +13.9 97 +13 +13 1011.9 985.4 0.5
21 15.05 СЗ 4 14 км ясно +17.1 +8.8 58 +17 +22 1014.6 988.1
00 16.05 СЗ 3 14 км ясно +13.2 +3.8 53 +12 +13 1016.1 989.4
03 16.05 штиль 0 14 км ясно +4.4 +3.6 95 +3 +3 1017.7 990.8
06 16.05 штиль 0 14 км ясно +1.3 +0.9 97 0 0 1018.0 991.6 17
09 16.05 штиль 0 14 км ясно +0.3 -0.3 96 -1 -1 1018.1 991.1
12 16.05 ЮЗ 1 14 км ясно +7.7 +5.6 87 +7 +10 1018.9 992.0
15 16.05 Ю 4 14 км ясно +17.5 +8.6 56 +17 +26 1017.8 990.9
18 16.05 Ю 4 14 км н/о +23.7 +9.0 39 +24 +24 комфорт 1015.5 988.8 +23.7
21 16.05 З 4 14 км ясно +25.1 +7.8 33 +25 +31 комфорт 1014.2 987.5
03 17.05 ЮЗ 1 14 км ясно +10.4 +8.0 85 +10 +10 1015.0 988.4
06 17.05 Ю 2 14 км ясно +8.9 +7.7 92 +7 +7 1014.5 988.0
09 17.05 Ю 1 14 км ясно +7.2 +6.7 97 +6 +6 1014.8 988.3
18 17.05 СЗ 5 14 км ясно +18.5 +9.4 55 +19 +28 1019.9 993.1
21 17.05 С 6 14 км ясно +17.3 +5.3 45 +16 +20 1020.7 993.8
03 18.05 В 1 14 км ясно +5.6 -0.7 64 +5 +5 997.5
06 18.05 штиль 0 14 км ясно +2.0 -0.6 83 +1 +1 1026.1 999.0
09 18.05 СВ 1 14 км ясно +0.6 -1.0 89 -1 -1 1027.2 1000.0
12 18.05 В 7 14 км ясно +9.8 -2.9 41 +7 +8 1027.9 1000.8
21 18.05 В 5 14 км ясно +20.4 +1.2 28 +21 +25 комфорт 1024.4 997.3
00 19.05 ЮВ 4 14 км ясно +17.1 +2.5 38 +17 +17 1023.7 996.8
03 19.05 Ю 1 14 км ясно +9.1 +1.4 59 +9 +9 1023.5 996.5
06 19.05 штиль 0 14 км ясно +6.4 +2.1 74 +6 +6 1022.2 995.3 12
09 19.05 штиль 0 14 км ясно +8.3 +5.9 85 +7 +7 1019.3 992.6
15 19.05 ЮВ 4 14 км слаб. дождь 10/10 100 м
[]
+13.9 +13.5 97 +12 +12 1015.3 988.5 2
21 19.05 Ю 7 14 км 10/10 200 м
[]
+15.5 +13.6 88 +14 +14 1010.6 984.0
00 20.05 Ю 4 14 км 9/9 300 м
[]
+17.0 +15.1 89 +17 +17 1009.3 982.8
03 20.05 Ю 3 3000 м дождь 10/10 300 м
[]
+15.8 +15.5 98 +15 +15 1009.5 983.0 6
06 20.05 СЗ 2 14 км {осадки} 9/9 100 м
[]
+13.7 +13.5 99 +13 +13 1010.9 984.4 7 19
09 20.05 СЗ 3 6000 м 10/10 50 м
[]
+11.9 +11.7 99 +10 +10 1013.2 986.6
12 20.05 СЗ 3 14 км 10/10 100 м
[]
+11.1 +10.8 98 +9 +9 1016.3 989.6 +10.5
15 20.05 СЗ 6 14 км 9/9 300 м
[]
+11.9 +8.0 77 +9 +10 1019.5 992.7
18 20.05 С 5 14 км {осадки} ясно +13.0 +7.8 71 +11 +20 1020.8 994.0 +14.4 0.5

 

Местоположение метеостанции Borden (Канада): широта 44.25 долгота -79.91 высота над уровнем моря 223 м.

В архиве по умолчанию представлена погода в Borden за последнюю неделю. Архивные данные за месяц целиком и за предыдущие месяцы, начиная с января 2011 года, Вы можете получить, выбрав интересующий диапазон дат из раскрывающегося списка и нажав кнопку "Ввод!".


*Определитесь, кто Вы:
робот инопланетянин человек

Внимание! Время в таблицах - всемирное. Для получения местного времени необходимо прибавить поправку, которая в Borden равна -5 ч.

Смотрите также архив погоды в соседних городах и на ближайших метеорологических станциях:

Погода в Egbert (Канада) (11 км)
Погода в Barrie (Канада) (18 км)
Погода в Collingwood (Канада) (37 км)
Погода в Barrie-oro (Канада) (38 км)
Погода в Toronto Buttonville (Канада) (61 км)
Погода в Buttonville (Канада) (61 км)
Погода в Toronto Aes Hq (Канада) (63 км)
Погода в Lagoon City (Канада) (64 км)
Погода в Beausoleil Isl (aut) (Канада) (67 км)
Погода в Toronto (Канада) (68 км)

Пояснения к столбцам:

Ветер - указаны скорость ветра в м/с - средняя за 10 мин, порывы в срок и между сроками (в фигурных скобках) и направление, откуда дует ветер: С - северный, СВ - северо-восточный, В - восточный, ЮВ - юго-восточный, Ю - южный, ЮЗ - юго-западный, З - западный, СЗ - северо-западный.
Видимость - горизонтальная дальность видимости в метрах или километрах. При видимости от 1 до 10 км при отсутствии осадков обычно наблюдается дымка, при ухудшении видимости до 1 км и менее - туман. В сухую погоду видимость может ухудшаться дымом, пылью или мглою.
Явления - указаны атмосферные явления, наблюдавшиеся в срок или в последний час перед сроком; фигурными скобками обозначены явления, наблюдавшиеся между сроками (за 1-3 часа до срока); квадратными скобками обозначены град или гололедные отложения с указанием их диаметра в мм.
Облачность - указаны через наклонную черту общая и нижняя облачность в баллах и высота нижней границы облаков в метрах; квадратными скобками обозначены формы облаков: Ci - перистые, Cs - перисто-слоистые, Cc - перисто-кучевые, Ac - высококучевые, As - высокослоистые, Sc - слоисто-кучевые, Ns - слоисто-дождевые, Cu - кучевые, Cb - кучево-дождевые. Подробнее классификацию облаков см. в Атласе облаков (PDF).
T - Температура воздуха - температура, измеренная на высоте 2 м над землей.
Td - Температура точки росы - температура, при понижении до которой содержащийся в воздухе водяной пар достигнет насыщения.
f - Относительная влажность воздуха - влажноcть воздуха, измеренная на высоте 2 м над землей.
Te - Эффективная температура - температура, которую ощущает одетый по сезону человек в тени. Характеристика душности погоды. При расчете учитывается влияние влажности воздуха и скорости ветра на теплоощущения человека.
Tes - Эффективная температура на солнце - температура, которую ощущает человек, с поправкой на солнечный нагрев. Характеристика знойности погоды. Зависит от высоты солнца над горизонтом, облачности и скорости ветра. Ночью, в пасмурную погоду, а также при ветре 12 м/с и более поправка равна нулю.
P - Атмосферное давление - приведенное к уровню моря атмосферное давление.
Po - Атмосферное давление - измеренное на уровне метеостанции атмосферное давление.
Tmin - Минимальная температура - минимум температуры воздуха на высоте 2 м над землей.
Tmax - Максимальная температура - максимум температуры воздуха на высоте 2 м над землей.
R - Количество осадков - Количество выпавших осадков за период времени, мм. При наведении курсора мыши на число - период времени, за который выпало указанное количество осадков.
R24 - Количество осадков - Количество выпавших осадков за 24 часа, мм.
S - Снежный покров - Высота снежного покрова, см. При наведении курсора мыши на число - состояние снежного покрова и степень покрытия местности в баллах.